Simultaneous Nadir Overpasses (SNOs) Predictions

Prediction of SNOs between GOES-16 and NOAA-19 Satellite Orbit:

Table of predicted SNOs for the next 14.0 days since TLE Epoch: 5/25/2024
Index Date Time (GOES-16) GOES-16 Lat,Lon NOAA-19 Lat,Lon Distance(km) Time Diff (sec)
1 05/26/2024 14:19:33 0.06, -75.22 0.37, -76.64 162.50 80
2 05/27/2024 14:09:56 0.05, -75.22 -0.31, -73.66 178.34 80
3 05/30/2024 02:29:29 -0.04, -75.22 -0.78, -78.31 352.93 80
4 05/31/2024 02:17:12 -0.04, -75.23 -0.07, -75.33 11.21 80
5 06/01/2024 02:02:16 -0.04, -75.24 0.64, -72.35 330.74 80
6 06/03/2024 14:21:43 0.04, -75.29 0.45, -76.97 193.37 80
7 06/04/2024 14:12:06 0.04, -75.30 -0.26, -73.99 148.86 80
8 06/05/2024 13:59:50 0.03, -75.31 -0.96, -71.01 491.09 80
9 06/07/2024 02:31:37 -0.02, -75.33 -0.77, -78.65 378.49 80
